SCP
0 0 0 0 0 0 0 0 0 0 0 0 0 0 0 0 0 0 0 0 0 -0 -0 0 0 0 0 0 0 0 0 0 0 0 0 0 0 0
0 0 0 0 0 0 0 0 0 0 0 0 0 0 0 0 0 0 0 0 0 0 0 0 0 0 0 0 0 0 0 0 0 0 0 0 0 0
0 0 0 0 0 0 0 0 0 0 0 0 0 0 0 0 0 0 0 0 0 0 0 0 0 0 0 0 0 0 0 0 0 0 0 0 0 0
0 0 0 0 0 0 0 0 0 0 0 0 0 0 0 0 0 0 0 0 0 0 0 0 0 0 0 0 -0 -0 0 0 0 0 0 0 0 0
0 0 0 0 0 0 0 0 0 0 0 0 0 0 0 0 0 0 0 0 0 0 0 0 0 0 0 0 0 0 0 0 0 0 0 0 0 0
0 0 0 0 0 0 0 0 0 0 0 0 0 0 0 0 0 0 0 0 0 0 0 0 0 0 0 0 0 0 0 0 0 0 0 0 0 0
0 0 0 0 0 0 0 0 0 0 0 0 0 0 0 0 0 0 0 0 0 0 0 0 0 0 0 0 0 0 0 0 0 0 0 0 0 0
0 0 0 0 0 0 0 0 0 0 0 0 0 0 0 0 0 0 0 0 0 0 0 0 0 0 0 0 0 0 0 0 0 0 0 0 0 0
0 0 0 0 0 0 0 0 0 0 0 0 0 0 0 0 0 0 0 0 0 0 0 0 0 0 0 0 0 0 0 0 0 0 0 0 0 0
0 0 0 0 0 0 0 0 0 0 0 0 0 0 0 0 0 0 0 0 0 0 0 0 0 0 0 0 0 -0 -0 0 0 0 0 0 0 0
0 0 0 0 0 0 0 0 0 0 0 0 0 0 0 0 0 0 0 0 0 0 0 0 0 0 0 0 -0 -0 0 0 0 0 0 0 0 0
0 0 0 0 0 0 0 0 0 0 0 0 0 0 0 0 0 0 0 0 0 0 0 0 0 0 -0 0 0 0 0 0 0 0 0 0 0 0
0 0 0 0 0 0 0 0 0 0 0 0 0 0 0 0 0 0 0 0 0 0 0 0 0 0 0 0 0 0 0 0 0 0 0 0 0 0
0 0 0 0 0 0 0 0 0 0 0 0 0 0 0 0 0 0 0 0 0 0 0 0 0 0 0 0 0 0 0 0 0 0 0 0 0 0
0 0 0 0 0 0 0 0 0 0 0 0 0 0 0 0 0 0 0 0 0 0 0 0 0 0 0 0 0 0 0 0 0 0 0 0 0 0
0 0 0 0 0 0 0 0 0 0 0 0 0 0 0 0 0 0 0 0 0 0 0 0 0 0 0 0 0 0 0 0 0 0 0 0 0 0
0 0 0 0 0 0 0 0 0 0 0 0 0 0 0 0 0 0 0 0 0 0 0 0 0 0 0 0 0 0 0 0 0 0 0 0 0 0
0 0 0 0 0 0 0 0 0 0 0 0 0 0 0 0 0 0 0 0 0 0 0 0 0 0 0 0 0 0 0 0 0 0 0 0 0 0
0 0 0 0 0 0 0 0 0 0 0 0 0 0 0 0 0 0 0 0 0 0 0 0 0 0 0 0 0 0 0 0 0 0 0 0 0 0
0 0 0 0 0 0 0 0 0 0 0 0 0 0 0 0 0 0 0 0 0 0 0 0 0 0 0 0 0 0 0 0 0 0 0 0 0 0
0 0 0 0 0 0 0 0 0 0 0 0 0 0 0 0 0 0 0 0 0 0 0 0 0 0 0 0 0 0 0 0 0 0 0 0 -0 0
0 0 0 0 0 0 0 0 0 0 0 0 0 0 0 0 0 0 0 0 0 0 0 0 0 0 0 0 0 0 0 0 0 0 0 0 -0 -0
0 0 0 0 0 0 0 0 0 0 0 0 0 0 0 0 0 0 0 0 0 0 0 0 0 0 0 0 0 0 0 0 0 0 0 0 -0 -0
Wind_Speed_500mb
19 20 15 12 14 17 18 16 18 17 23 12 8 22 30 26 28 36 37 39 41 45 52 58 55 53 52 52 48 46 49 53 56 60 62 59 59 62
19 20 16 10 9 9 11 10 12 17 18 16 15 20 27 29 23 37 40 39 34 39 46 54 61 55 56 56 51 51 50 51 52 56 61 63 63 61
17 16 17 20 11 9 13 8 9 9 8 8 11 18 24 28 35 39 42 34 38 43 43 55 55 57 53 62 64 61 56 54 55 54 56 60 62 59
20 16 18 12 9 14 10 6 4 4 9 13 14 20 24 28 32 40 41 43 47 45 51 55 55 52 57 60 54 51 59 56 52 57 59 60 62 69
19 19 24 22 22 18 12 10 8 2 4 11 16 16 21 26 36 38 42 45 50 56 55 54 57 58 56 62 58 58 48 48 58 65 67 69 71 72
28 27 24 22 13 14 15 5 2 0 4 4 9 14 19 29 38 44 50 54 62 61 59 64 61 63 63 66 68 68 60 54 61 71 83 79 72 70
24 20 14 13 10 8 2 2 3 3 5 7 9 16 22 35 43 47 57 65 67 60 70 69 69 72 72 74 74 65 62 75 82 81 71 58 55 54
25 14 12 12 12 8 2 2 4 5 9 11 15 20 28 38 45 54 60 66 77 68 74 77 76 78 80 74 68 78 81 74 64 56 56 60 62 65
18 11 14 7 5 2 6 7 10 14 17 18 20 29 37 44 52 54 52 56 63 66 69 83 80 81 73 76 86 82 62 44 67 65 67 71 70 71
28 25 17 12 4 1 4 3 5 9 15 23 31 36 39 43 43 48 51 56 57 62 60 82 73 76 91 92 78 48 35 70 84 73 73 75 76 76
29 26 23 8 3 3 5 7 5 3 19 27 34 37 37 38 34 42 47 51 65 71 64 44 74 99 101 84 57 23 63 89 79 78 80 80 77 78
23 20 15 7 3 7 10 11 11 18 23 30 31 28 32 33 31 32 41 47 57 64 47 71 78 80 74 77 53 93 97 93 92 85 80 79 75 75
20 17 14 8 7 11 15 16 20 23 28 32 31 34 31 35 39 42 44 49 53 57 66 61 77 71 60 92 91 99 100 103 100 90 79 74 74 68
20 15 6 7 11 15 20 21 24 27 26 30 33 33 30 44 49 47 47 48 51 60 65 57 63 67 77 90 97 106 106 101 92 85 85 90 88 84
15 12 10 11 14 20 21 24 25 25 28 31 34 31 42 50 46 50 50 52 57 59 53 51 58 66 71 84 99 105 109 103 80 82 97 99 96 94
18 15 14 16 18 19 21 25 29 30 31 32 35 43 52 45 49 52 54 59 65 63 58 58 59 60 73 77 87 96 95 92 102 91 103 105 93 90
14 14 15 15 17 18 20 22 25 28 31 31 41 52 46 48 57 53 56 60 60 69 75 75 70 70 68 68 76 85 99 99 107 111 106 107 102 96
15 16 12 12 17 20 22 25 26 27 32 40 46 41 48 58 55 57 57 58 63 70 81 79 83 84 77 68 57 76 95 108 111 109 102 102 107 102
21 17 14 18 23 24 25 29 30 31 38 39 39 45 56 50 55 56 62 59 70 78 77 80 78 69 81 86 81 74 93 108 110 104 94 100 113 121
23 20 20 22 25 28 29 31 35 38 36 39 43 48 49 54 59 60 59 69 77 76 80 77 72 70 74 94 110 108 80 89 95 112 115 111 119 121
15 15 23 27 29 31 32 35 37 36 36 41 46 50 54 56 56 58 69 71 68 73 77 79 82 79 84 88 98 107 106 85 75 90 109 111 113 128
23 26 27 29 33 36 36 34 34 37 40 46 50 52 52 51 60 67 67 69 71 73 80 82 86 79 85 84 94 101 110 110 101 95 84 86 97 105
21 26 31 35 39 39 32 36 42 45 46 47 49 48 55 62 64 66 67 69 73 73 78 83 79 86 90 84 87 96 102 114 113 114 123 107 100 110
Wind_Direction_500mb
191 188 190 183 183 188 181 169 161 151 132 131 180 278 302 327 333 327 335 340 347 340 335 332 333 331 329 327 326 322 318 314 310 307 303 297 290 285
195 184 179 162 183 183 153 160 169 175 178 219 263 303 314 329 327 330 336 344 347 325 327 327 327 328 330 329 328 325 321 317 309 304 303 303 300 292
183 185 159 165 185 170 135 178 175 197 225 253 297 316 330 337 337 326 332 340 323 335 322 316 326 329 326 323 328 328 325 319 314 306 300 297 296 298
172 166 139 145 171 154 149 140 213 12 310 335 337 336 340 333 319 319 329 325 327 326 325 321 323 322 316 318 325 326 325 324 319 311 306 298 293 292
164 163 162 174 194 173 160 182 217 245 359 314 329 332 321 319 308 317 320 324 323 327 324 320 323 318 318 317 320 320 325 318 304 303 306 303 300 296
174 195 197 197 193 183 196 211 269 154 246 290 300 308 316 306 313 322 321 325 328 328 327 323 323 318 319 320 322 322 317 306 306 305 303 303 300 292
183 195 181 174 181 200 210 282 279 285 318 314 310 318 327 321 324 318 323 327 326 333 322 321 326 326 323 320 321 322 321 318 311 307 309 311 313 302
176 185 172 167 184 181 165 259 301 343 341 331 330 333 326 316 313 324 327 326 327 327 323 323 326 323 321 319 322 321 320 312 310 317 312 307 300 291
162 153 120 208 167 44 11 357 351 6 357 337 337 332 320 315 320 319 319 318 317 322 323 316 327 318 319 317 319 319 318 315 323 313 306 301 303 299
172 165 178 210 164 277 344 330 359 14 312 312 318 318 314 312 316 318 319 318 315 313 318 314 325 316 314 316 323 322 323 322 319 314 309 305 304 302
186 181 192 174 175 292 321 337 351 201 279 321 318 314 315 319 318 306 317 312 313 314 330 317 317 315 319 324 333 317 311 320 321 318 313 309 306 304
185 179 199 206 247 290 307 317 314 318 318 316 312 315 321 311 301 296 300 306 310 323 315 322 320 326 324 321 309 319 319 321 321 319 316 313 312 308
191 197 185 215 270 293 304 316 318 319 319 315 318 325 321 305 306 305 303 307 312 307 313 314 313 318 306 305 307 312 316 319 320 319 318 316 316 309
207 217 219 254 287 298 306 309 312 315 313 317 323 324 315 306 313 315 316 314 309 305 311 313 311 310 308 304 304 310 311 317 319 319 321 319 313 310
216 233 251 272 290 296 298 302 308 314 322 318 323 322 306 314 316 317 315 309 307 310 316 318 309 306 304 301 302 307 314 319 319 313 312 311 307 301
229 239 262 279 290 299 312 318 321 324 321 326 322 308 314 317 317 316 313 314 315 318 321 317 312 307 304 301 306 309 315 304 309 306 304 309 307 305
228 260 276 290 311 320 307 302 300 303 310 312 307 312 318 315 315 317 315 320 319 317 317 320 318 315 311 311 308 307 306 304 306 310 313 310 309 310
249 262 272 283 290 287 287 290 289 299 300 307 313 319 309 311 315 317 319 318 315 312 315 320 322 323 319 309 304 304 304 311 314 314 311 304 302 302
254 259 259 266 270 282 283 285 295 298 303 312 312 304 307 313 316 314 316 315 312 314 316 321 321 317 314 307 308 309 305 311 311 306 304 300 300 303
257 257 249 258 269 275 278 285 291 301 307 310 308 310 311 309 309 313 313 311 314 316 315 318 313 313 309 305 307 308 309 307 307 304 306 307 303 305
270 275 271 272 270 274 281 288 297 304 309 310 305 302 301 305 309 308 309 312 315 313 311 309 314 314 311 309 306 309 320 318 303 302 304 303 301 303
236 247 256 266 273 280 288 295 299 300 296 295 296 301 305 305 304 308 312 313 312 310 309 311 316 317 312 311 305 308 314 325 325 320 306 300 300 297
266 254 256 264 275 285 289 286 288 292 295 298 302 303 301 304 308 311 311 312 312 313 312 316 316 312 313 311 309 309 311 316 320 319 321 326 313 312
Wind_Speed_850mb
19 20 15 12 14 17 18 16 18 17 23 12 8 22 30 26 28 36 37 39 41 45 52 58 55 53 52 52 48 46 49 53 56 60 62 59 59 62
19 20 16 10 9 9 11 10 12 17 18 16 15 20 27 29 23 37 40 39 34 39 46 54 61 55 56 56 51 51 50 51 52 56 61 63 63 61
17 16 17 20 11 9 13 8 9 9 8 8 11 18 24 28 35 39 42 34 38 43 43 55 55 57 53 62 64 61 56 54 55 54 56 60 62 59
20 16 18 12 9 14 10 6 4 4 9 13 14 20 24 28 32 40 41 43 47 45 51 55 55 52 57 60 54 51 59 56 52 57 59 60 62 69
19 19 24 22 22 18 12 10 8 2 4 11 16 16 21 26 36 38 42 45 50 56 55 54 57 58 56 62 58 58 48 48 58 65 67 69 71 72
28 27 24 22 13 14 15 5 2 0 4 4 9 14 19 29 38 44 50 54 62 61 59 64 61 63 63 66 68 68 60 54 61 71 83 79 72 70
24 20 14 13 10 8 2 2 3 3 5 7 9 16 22 35 43 47 57 65 67 60 70 69 69 72 72 74 74 65 62 75 82 81 71 58 55 54
25 14 12 12 12 8 2 2 4 5 9 11 15 20 28 38 45 54 60 66 77 68 74 77 76 78 80 74 68 78 81 74 64 56 56 60 62 65
18 11 14 7 5 2 6 7 10 14 17 18 20 29 37 44 52 54 52 56 63 66 69 83 80 81 73 76 86 82 62 44 67 65 67 71 70 71
28 25 17 12 4 1 4 3 5 9 15 23 31 36 39 43 43 48 51 56 57 62 60 82 73 76 91 92 78 48 35 70 84 73 73 75 76 76
29 26 23 8 3 3 5 7 5 3 19 27 34 37 37 38 34 42 47 51 65 71 64 44 74 99 101 84 57 23 63 89 79 78 80 80 77 78
23 20 15 7 3 7 10 11 11 18 23 30 31 28 32 33 31 32 41 47 57 64 47 71 78 80 74 77 53 93 97 93 92 85 80 79 75 75
20 17 14 8 7 11 15 16 20 23 28 32 31 34 31 35 39 42 44 49 53 57 66 61 77 71 60 92 91 99 100 103 100 90 79 74 74 68
20 15 6 7 11 15 20 21 24 27 26 30 33 33 30 44 49 47 47 48 51 60 65 57 63 67 77 90 97 106 106 101 92 85 85 90 88 84
15 12 10 11 14 20 21 24 25 25 28 31 34 31 42 50 46 50 50 52 57 59 53 51 58 66 71 84 99 105 109 103 80 82 97 99 96 94
18 15 14 16 18 19 21 25 29 30 31 32 35 43 52 45 49 52 54 59 65 63 58 58 59 60 73 77 87 96 95 92 102 91 103 105 93 90
14 14 15 15 17 18 20 22 25 28 31 31 41 52 46 48 57 53 56 60 60 69 75 75 70 70 68 68 76 85 99 99 107 111 106 107 102 96
15 16 12 12 17 20 22 25 26 27 32 40 46 41 48 58 55 57 57 58 63 70 81 79 83 84 77 68 57 76 95 108 111 109 102 102 107 102
21 17 14 18 23 24 25 29 30 31 38 39 39 45 56 50 55 56 62 59 70 78 77 80 78 69 81 86 81 74 93 108 110 104 94 100 113 121
23 20 20 22 25 28 29 31 35 38 36 39 43 48 49 54 59 60 59 69 77 76 80 77 72 70 74 94 110 108 80 89 95 112 115 111 119 121
15 15 23 27 29 31 32 35 37 36 36 41 46 50 54 56 56 58 69 71 68 73 77 79 82 79 84 88 98 107 106 85 75 90 109 111 113 128
23 26 27 29 33 36 36 34 34 37 40 46 50 52 52 51 60 67 67 69 71 73 80 82 86 79 85 84 94 101 110 110 101 95 84 86 97 105
21 26 31 35 39 39 32 36 42 45 46 47 49 48 55 62 64 66 67 69 73 73 78 83 79 86 90 84 87 96 102 114 113 114 123 107 100 110
Wind_Direction_850mb
191 188 190 183 183 188 181 169 161 151 132 131 180 278 302 327 333 327 335 340 347 340 335 332 333 331 329 327 326 322 318 314 310 307 303 297 290 285
195 184 179 162 183 183 153 160 169 175 178 219 263 303 314 329 327 330 336 344 347 325 327 327 327 328 330 329 328 325 321 317 309 304 303 303 300 292
183 185 159 165 185 170 135 178 175 197 225 253 297 316 330 337 337 326 332 340 323 335 322 316 326 329 326 323 328 328 325 319 314 306 300 297 296 298
172 166 139 145 171 154 149 140 213 12 310 335 337 336 340 333 319 319 329 325 327 326 325 321 323 322 316 318 325 326 325 324 319 311 306 298 293 292
164 163 162 174 194 173 160 182 217 245 359 314 329 332 321 319 308 317 320 324 323 327 324 320 323 318 318 317 320 320 325 318 304 303 306 303 300 296
174 195 197 197 193 183 196 211 269 154 246 290 300 308 316 306 313 322 321 325 328 328 327 323 323 318 319 320 322 322 317 306 306 305 303 303 300 292
183 195 181 174 181 200 210 282 279 285 318 314 310 318 327 321 324 318 323 327 326 333 322 321 326 326 323 320 321 322 321 318 311 307 309 311 313 302
176 185 172 167 184 181 165 259 301 343 341 331 330 333 326 316 313 324 327 326 327 327 323 323 326 323 321 319 322 321 320 312 310 317 312 307 300 291
162 153 120 208 167 44 11 357 351 6 357 337 337 332 320 315 320 319 319 318 317 322 323 316 327 318 319 317 319 319 318 315 323 313 306 301 303 299
172 165 178 210 164 277 344 330 359 14 312 312 318 318 314 312 316 318 319 318 315 313 318 314 325 316 314 316 323 322 323 322 319 314 309 305 304 302
186 181 192 174 175 292 321 337 351 201 279 321 318 314 315 319 318 306 317 312 313 314 330 317 317 315 319 324 333 317 311 320 321 318 313 309 306 304
185 179 199 206 247 290 307 317 314 318 318 316 312 315 321 311 301 296 300 306 310 323 315 322 320 326 324 321 309 319 319 321 321 319 316 313 312 308
191 197 185 215 270 293 304 316 318 319 319 315 318 325 321 305 306 305 303 307 312 307 313 314 313 318 306 305 307 312 316 319 320 319 318 316 316 309
207 217 219 254 287 298 306 309 312 315 313 317 323 324 315 306 313 315 316 314 309 305 311 313 311 310 308 304 304 310 311 317 319 319 321 319 313 310
216 233 251 272 290 296 298 302 308 314 322 318 323 322 306 314 316 317 315 309 307 310 316 318 309 306 304 301 302 307 314 319 319 313 312 311 307 301
229 239 262 279 290 299 312 318 321 324 321 326 322 308 314 317 317 316 313 314 315 318 321 317 312 307 304 301 306 309 315 304 309 306 304 309 307 305
228 260 276 290 311 320 307 302 300 303 310 312 307 312 318 315 315 317 315 320 319 317 317 320 318 315 311 311 308 307 306 304 306 310 313 310 309 310
249 262 272 283 290 287 287 290 289 299 300 307 313 319 309 311 315 317 319 318 315 312 315 320 322 323 319 309 304 304 304 311 314 314 311 304 302 302
254 259 259 266 270 282 283 285 295 298 303 312 312 304 307 313 316 314 316 315 312 314 316 321 321 317 314 307 308 309 305 311 311 306 304 300 300 303
257 257 249 258 269 275 278 285 291 301 307 310 308 310 311 309 309 313 313 311 314 316 315 318 313 313 309 305 307 308 309 307 307 304 306 307 303 305
270 275 271 272 270 274 281 288 297 304 309 310 305 302 301 305 309 308 309 312 315 313 311 309 314 314 311 309 306 309 320 318 303 302 304 303 301 303
236 247 256 266 273 280 288 295 299 300 296 295 296 301 305 305 304 308 312 313 312 310 309 311 316 317 312 311 305 308 314 325 325 320 306 300 300 297
266 254 256 264 275 285 289 286 288 292 295 298 302 303 301 304 308 311 311 312 312 313 312 316 316 312 313 311 309 309 311 316 320 319 321 326 313 312